Ozark, AL

4:47 AM CDT on September 24, 2017 (GMT -0500)
Cairns Army Air Field

Weather History for KOZR - October, 2011

Change the Weather History Date:

Friday, October 28, 2011

  Actual Average Record
Temperature  
Mean Temperature 67 °F -  
Max Temperature 82 °F 74 °F 86 °F (1996)
Min Temperature 53 °F 51 °F 33 °F (2001)
Cooling Degree Days 2    
Growing Degree Days 17 (Base 50)    
Moisture  
Dew Point 57 °F    
Average Humidity 81    
Maximum Humidity 100    
Minimum Humidity 38    
Precipitation  
Precipitation 0.00 in - - ()
Sea Level Pressure  
Sea Level Pressure 29.92 in    
Wind  
Wind Speed 2 mph (West)    
Max Wind Speed 14 mph    
Max Gust Speed 18 mph    
Visibility 6 miles    
Events Fog    
Averages and records for this station are not official NWS values.
T = Trace of Precipitation, MM = Missing Value Source: NWS Daily Summary

Daily Weather History Graph

Daily Weather History Graph

Search for Another Location

Airport or City:

Trip Planner

Search our weather history database for the weather conditions in past years. The results will help you decide how hot, cold, wet, or windy it might be!

Date:

Astronomy

Oct. 28, 2011 Rise Set
Actual Time 6:55 AM CDT 5:57 PM CDT
Civil Twilight 6:30 AM CDT 6:22 PM CDT
Nautical Twilight 6:01 AM CDT 6:51 PM CDT
Astronomical Twilight 5:33 AM CDT 7:19 PM CDT
Moon 8:59 AM CDT (10/28) 7:31 PM CDT (10/28)
Length of Visible Light 11h 52m
Length of Day
11h 02m
Waxing Crescent, 5% of the Moon is Illuminated
Oct 28
Waxing Crescent
Nov 2
First Quarter
Nov 10
Full
Nov 18
Last Quarter
Nov 25
New

Hourly Weather History & Observations

Time (CDT) Temp. Heat Index Dew Point Humidity Pressure Visibility Wind Dir Wind Speed Gust Speed Precip Events Conditions
12:55 AM 62.6 °F - 60.1 °F 91% 29.91 in 10.0 mi Calm Calm - N/A   Clear
1:55 AM 60.8 °F - 59.7 °F 96% 29.91 in 10.0 mi Calm Calm - N/A   Clear
2:55 AM 60.3 °F - 59.2 °F 96% 29.91 in 10.0 mi Calm Calm - N/A   Clear
3:26 AM 59.0 °F - 57.2 °F 94% 29.91 in 2.0 mi Calm Calm - N/A   Clear
3:27 AM 59.0 °F - 57.2 °F 94% 29.91 in 1.0 mi Calm Calm - N/A   Clear
3:28 AM 59.0 °F - 57.2 °F 94% 29.91 in 0.5 mi Calm Calm - N/A Fog Fog
3:31 AM 57.2 °F - 57.2 °F 100% 29.91 in 0.2 mi Calm Calm - N/A Fog Fog
3:33 AM 57.2 °F - 57.2 °F 100% 29.91 in 5.0 mi SW 2.3 mph - N/A   Clear
3:55 AM 57.4 °F - 56.8 °F 98% 29.91 in 3.0 mi SW 3.5 mph - N/A   Clear
4:52 AM 57.2 °F - 57.2 °F 100% 29.91 in 1.0 mi Calm Calm - N/A   Clear
4:55 AM 57.4 °F - 56.8 °F 98% 29.91 in 1.0 mi Calm Calm - N/A   Clear
5:11 AM 57.2 °F - 55.4 °F 94% 29.92 in 3.0 mi Calm Calm - N/A   Clear
5:55 AM 56.3 °F - 55.8 °F 98% 29.93 in 2.0 mi Calm Calm - N/A   Clear
6:13 AM 55.4 °F - 53.6 °F 94% 29.93 in 1.0 mi WNW 2.3 mph - N/A   Clear
6:26 AM 55.4 °F - 55.4 °F 100% 29.94 in 0.2 mi West 1.2 mph - N/A Fog Fog
6:55 AM 55.2 °F - 54.5 °F 97% 29.94 in 0.5 mi Calm Calm - N/A Fog Fog
7:14 AM 53.6 °F - 53.6 °F 100% 29.94 in 0.5 mi Calm Calm - N/A Fog Fog
7:41 AM 55.4 °F - 53.6 °F 94% 29.94 in 0.8 mi Calm Calm - N/A   Clear
7:50 AM 55.4 °F - 55.4 °F 100% 29.95 in 1.0 mi Calm Calm - N/A   Clear
7:55 AM 55.6 °F - 55.2 °F 99% 29.95 in 1.5 mi Calm Calm - N/A   Clear
8:15 AM 57.2 °F - 57.2 °F 100% 29.95 in 3.0 mi Calm Calm - N/A   Scattered Clouds
8:55 AM 61.0 °F - 60.6 °F 99% 29.97 in 10.0 mi Calm Calm - N/A   Clear
9:55 AM 65.3 °F - 64.4 °F 97% 29.97 in 10.0 mi Calm Calm - N/A   Scattered Clouds
10:55 AM 76.1 °F - 58.1 °F 54% 29.97 in 10.0 mi WNW 5.8 mph - N/A   Clear
11:55 AM 79.9 °F - 55.6 °F 43% 29.94 in 10.0 mi WNW 9.2 mph - N/A   Scattered Clouds
12:55 PM 79.7 °F - 53.6 °F 40% 29.91 in 10.0 mi SSW 8.1 mph - N/A   Clear
1:55 PM 81.5 °F 80.9 °F 54.3 °F 39% 29.88 in 10.0 mi Variable 6.9 mph - N/A   Scattered Clouds
2:55 PM 80.2 °F 80.2 °F 54.5 °F 41% 29.87 in 10.0 mi West 3.5 mph - N/A   Clear
3:55 PM 81.3 °F 80.7 °F 53.4 °F 38% 29.87 in 10.0 mi West 5.8 mph - N/A   Mostly Cloudy
4:55 PM 79.0 °F - 54.9 °F 43% 29.87 in 10.0 mi SW 6.9 mph - N/A   Scattered Clouds
5:55 PM 76.1 °F - 56.1 °F 50% 29.87 in 10.0 mi Calm Calm - N/A   Mostly Cloudy
6:55 PM 73.6 °F - 57.4 °F 57% 29.89 in 10.0 mi West 4.6 mph - N/A   Overcast
7:55 PM 71.4 °F - 60.8 °F 69% 29.91 in 10.0 mi NW 10.4 mph - N/A   Overcast
8:55 PM 67.8 °F - 59.9 °F 76% 29.92 in 10.0 mi NW 8.1 mph - N/A   Clear
9:55 PM 63.3 °F - 56.7 °F 79% 29.95 in 10.0 mi WNW 11.5 mph - N/A   Clear
10:15 PM 62.6 °F - 55.4 °F 77% 29.95 in 10.0 mi NW 10.4 mph - N/A   Mostly Cloudy
10:55 PM 61.3 °F - 55.0 °F 80% 29.96 in 10.0 mi NW 13.8 mph 18.4 mph N/A   Overcast
11:55 PM 59.0 °F - 52.2 °F 78% 29.97 in 10.0 mi NW 11.5 mph - N/A   Overcast